User: anonymous   Login
Location: Unspecified
(48.7670°N, 0.0000°E)
Time: 09:03:15
(UTC+00:00)
Language:

BUGSAT 1 - Orbit

View from above orbital plane
View from above orbital plane
View from above satellite
View from above satellite

Ground track
Ground track

The orbit data is extracted from the following two-line orbital elements,

1 40014U 14033E   19199.15327488  .00000693  00000-0  68028-4 0  9993
2 40014  98.0176 147.3562 0030869 325.2132  34.7085 14.95288586276901
Epoch (UTC): 18 July 2019 03:40:42
Eccentricity: 0.0030869
inclination: 98.0176°
perigee height: 560 km
apogee height: 603 km
right ascension of ascending node: 147.3562°
argument of perigee: 325.2132°
revolutions per day: 14.95288586
mean anomaly at epoch: 34.7085°
orbit number at epoch: 27690

The dashed part of the orbit path shows where the satellite is in the earth's shadow,  

DLR